Winfield, KS

2:28 PM CST on December 05, 2019 (GMT -0600)
Strother

Weather History for KWLD - August, 2019

Change the Weather History Date:

Tuesday, August 27, 2019

  Actual Average Record
Temperature  
Mean Temperature 72 °F -  
Max Temperature 81 °F 90 °F 102 °F (1998)
Min Temperature 62 °F 67 °F 57 °F (2010)
Cooling Degree Days 7    
Growing Degree Days 22 (Base 50)    
Moisture  
Dew Point 61 °F    
Average Humidity 72    
Maximum Humidity 93    
Minimum Humidity 43    
Precipitation  
Precipitation 0.00 in - - ()
Sea Level Pressure  
Sea Level Pressure 30.02 in    
Wind  
Wind Speed 6 mph ()    
Max Wind Speed 14 mph    
Max Gust Speed 21 mph    
Visibility 10.0 miles    
Events      
Averages and records for this station are not official NWS values.
T = Trace of Precipitation, MM = Missing Value Source: Averaged Metar Reports

Daily Weather History Graph

Daily Weather History Graph

Search for Another Location

Airport or City:

Astronomy

Aug. 27, 2019 Rise Set
Actual Time 6:54 AM CDT 8:04 PM CDT
Civil Twilight 6:27 AM CDT 8:31 PM CDT
Nautical Twilight 5:55 AM CDT 9:03 PM CDT
Astronomical Twilight 5:22 AM CDT 9:36 PM CDT
Moon 3:25 AM CDT (8/27) 6:21 PM CDT (8/27)
Length of Visible Light 14h 03m
Length of Day
13h 09m
Waning Crescent, 11% of the Moon is Illuminated
Aug 27
Waning Crescent
Aug 30
New
Sep 5
First Quarter
Sep 13
Full
Sep 21
Last Quarter

Hourly Weather History & Observations

Time (CDT) Temp. Heat Index Dew Point Humidity Pressure Visibility Wind Dir Wind Speed Gust Speed Precip Events Conditions
12:54 AM 71.1 °F - 66.9 °F 87% 29.88 in 10.0 mi North 9.2 mph - N/A   Clear
1:54 AM 70.0 °F - 66.9 °F 90% 29.94 in 10.0 mi NNE 6.9 mph - N/A   Partly Cloudy
2:54 AM 69.1 °F - 66.9 °F 93% 29.92 in 10.0 mi North 9.2 mph - N/A   Clear
3:54 AM 69.1 °F - 66.9 °F 93% 29.91 in 10.0 mi North 10.4 mph - N/A   Clear
4:54 AM 69.1 °F - 66.9 °F 93% 29.92 in 10.0 mi NNE 8.1 mph - N/A   Clear
5:54 AM 69.1 °F - 66.0 °F 90% 29.94 in 10.0 mi NNE 4.6 mph - N/A   Clear
6:54 AM 68.0 °F - 66.0 °F 93% 29.98 in 10.0 mi Calm Calm - N/A   Clear
7:54 AM 68.0 °F - 64.9 °F 90% 30.01 in 10.0 mi NNE 3.5 mph - N/A   Clear
8:54 AM 70.0 °F - 61.0 °F 73% 30.03 in 10.0 mi NE 6.9 mph - N/A   Clear
9:54 AM 73.0 °F - 62.1 °F 68% 30.04 in 10.0 mi North 4.6 mph - N/A   Clear
10:54 AM 75.0 °F - 57.9 °F 55% 30.06 in 10.0 mi ENE 6.9 mph - N/A   Clear
11:54 AM 78.1 °F - 61.0 °F 56% 30.07 in 10.0 mi North 6.9 mph - N/A   Partly Cloudy
12:54 PM 77.0 °F - 63.0 °F 62% 30.07 in 10.0 mi North 8.1 mph - N/A   Partly Cloudy
1:54 PM 78.1 °F - 60.1 °F 54% 30.05 in 10.0 mi NNE 10.4 mph - N/A   Scattered Clouds
2:54 PM 80.1 °F 80.7 °F 59.0 °F 48% 30.05 in 10.0 mi North 13.8 mph - N/A   Clear
3:54 PM 79.0 °F - 57.0 °F 47% 30.04 in 10.0 mi North 13.8 mph 20.7 mph N/A   Clear
4:54 PM 78.1 °F - 55.0 °F 45% 30.04 in 10.0 mi Variable 5.8 mph - N/A   Clear
5:54 PM 78.1 °F - 54.0 °F 43% 30.04 in 10.0 mi NNE 9.2 mph - N/A   Clear
6:54 PM 77.0 °F - 55.0 °F 47% 30.04 in 10.0 mi NNE 6.9 mph - N/A   Clear
8:54 PM 66.9 °F - 59.0 °F 76% 30.07 in 10.0 mi North 3.5 mph - N/A   Clear
9:54 PM 66.0 °F - 59.0 °F 78% 30.09 in 10.0 mi Calm Calm - N/A   Clear
10:54 PM 64.0 °F - 60.1 °F 87% 30.11 in 10.0 mi Calm Calm - N/A   Clear
11:54 PM 62.1 °F - 59.0 °F 90% 30.10 in 10.0 mi Calm Calm - N/A   Clear